COSMOS 1989 (ETALON 1)

Last updated on Thu Nov 21 2024 00:03:28 GMT+0000 (Coordinated Universal Time)

1 19751U 89001C 24325.43245934 .00000017 00000+0 00000+0 0 9997 2 19751 64.6295 91.8677 0023717 216.1484 112.6158 2.13156086279139
UTC large
Height (km)
Speed (km/s)
/
Latitude / Longitude
Inclination (degrees)
Orbital Period (minutes)
Azimuth
Elevation
Range (km)
Doppler Factor

Next 0 passes for location: London (51.5072 / 0.1276)

Sorry there are no passes over London.